Location: Bad Salzschlirf
(50.3750°N, 9.3000°E)
Time: 05:37:59
(UTC+01:00)

ISS - Pass Details

Date: 23 February 2020
Orbit: 415 x 423 km, 51.6° (Epoch: 27 February)

Event Time Altitude Azimuth Distance (km) Brightness Sun altitude
Exits shadow 05:54:53 - 200° (SSW) 2,101 -0.4 -14.3°
Reaches altitude 10° 05:56:45 10° 183° (S) 1,496 -1.0 -14.0°
Maximum altitude 05:59:02 17° 140° (SE) 1,135 -1.1 -13.6°
Drops below altitude 10° 06:01:20 10° 97° (E) 1,505 0.5 -13.3°
Sets 06:03:55 0° 77° (ENE) 2,375 1.8 -12.9°
